Simultaneous Nadir Overpasses (SNOs) Predictions

Prediction of SNOs between NOAA-20 and AQUA Satellite Orbit:

Table of predicted SNOs for the next 14.0 days since TLE Epoch: 11/11/2023
Index Date (NOAA-20) Time (NOAA-20) Lat,Lon (NOAA-20) SZA (NOAA-20 ) Date (AQUA) Time (AQUA) Lat,Lon (AQUA) SZA (AQUA ) Distance(km) Time Diff (sec)
1 11/11/2023 17:38:08 80.93,-170.14 105.94 11/11/2023 17:39:08 80.93,-170.21 105.92 1.39 60
2 11/11/2023 18:28:50 -80.99, -1.64 74.22 11/11/2023 18:28:30 -80.98, -1.81 74.18 3.11 20
3 11/14/2023 07:22:50 -80.95, 163.91 73.40 11/14/2023 07:23:37 -80.95, 164.00 73.44 1.60 47
4 11/14/2023 08:13:31 81.00, -27.46 106.43 11/14/2023 08:12:58 81.00, -27.63 106.47 3.12 33
5 11/16/2023 21:07:31 80.96, 138.00 107.23 11/16/2023 21:08:04 80.96, 138.00 107.21 0.14 33
6 11/16/2023 21:58:13 -81.01, -53.44 72.94 11/16/2023 21:57:26 -81.01, -53.55 72.90 1.80 47
7 11/19/2023 10:52:13 -80.96, 111.98 72.17 11/19/2023 10:52:31 -80.96, 111.98 72.18 0.49 18
8 11/19/2023 11:42:55 81.00, -79.80 107.72 11/19/2023 11:41:52 81.00, -79.73 107.75 1.25 63
9 11/22/2023 00:36:52 80.98, 86.26 108.37 11/22/2023 00:36:53 80.99, 86.33 108.36 1.29 1
10 11/24/2023 13:30:50 80.96,-107.72 108.99 11/24/2023 13:31:54 80.96,-107.73 108.95 0.35 64



Historial Predications of SNOs between NOAA-20 and AQUA
